Regional Weather Roundup
Issued by NWS Sioux Falls, SD

Home | Current Version | Previous Version | Text Only | Print | Product List | Glossary Off
Versions: 1 2 3 4 5 6 7 8 9 10 11 12 13 14 15 16 17 18 19 20 21 22 23 24 25 26 27 28 29 30 31 32 33 34 35 36 37 38 39 40 41 42 43 44 45 46 47 48 49 50

000
ASUS43 KFSD 240410
RWRFSD

WEATHER ROUNDUP FOR SE SOUTH DAKOTA/SW MINNESOTA/NW IOWA
NATIONAL WEATHER SERVICE SIOUX FALLS SD
1000 PM CST SUN NOV 23 2014

NOTE: "FAIR" INDICATES FEW OR NO CLOUDS BELOW 12,000 FEET WITH NO
SIGNIFICANT WEATHER AND OR OBSTRUCTIONS TO VISIBILITY.


SDZ038>040-050-052>070-240500-
SOUTHEAST SOUTH DAKOTA

CITY           SKY/WX    TMP DP  RH WIND       PRES   REMARKS
CHAMBERLAIN    FLURRIES  28  20  71 NW20G29   29.66S WCI  15
HURON          CLOUDY    24  16  71 NW21G32   29.64R WCI   9
MADISON        CLOUDY    23  19  86 N22G35    29.55S WCI   8
MITCHELL       CLOUDY    28  19  69 N22       29.63  WCI  14
SIOUX FALLS    CLOUDY    27  20  75 NW21G30   29.54F WCI  13
WINNER         CLOUDY    31  20  63 NW22G29   29.67S WCI  18
YANKTON        CLOUDY    30  19  64 NW20G26   29.60F WCI  18
$$

MNZ071-072-080-081-089-090-097-098-240500-
SOUTHWEST MINNESOTA

CITY           SKY/WX    TMP DP  RH WIND       PRES   REMARKS
FAIRMONT       CLOUDY    32  21  64 NW25G32   29.41F WCI  19
JACKSON        CLOUDY    32  27  80 NW23G35   29.44F WCI  19
LUVERNE        CLOUDY    30  23  74 NW21G32   29.52S WCI  17
MARSHALL       CLOUDY    27  18  69 NW28G35   29.50S WCI  11
MONTEVIDEO     CLOUDY    27  23  86 N20G25    29.50F WCI  13
PIPESTONE      CLOUDY    27  19  74 N25G33    29.50S WCI  11
REDWOOD FALLS  CLOUDY    30  22  72 NW20G30   29.46F WCI  17
TRACY          CLOUDY    29  24  79 NW22G31   29.48F WCI  16
WINDOM         CLOUDY    30  25  80 NW23G29   29.45S WCI  17
WORTHINGTON    CLOUDY    28  23  80 NW22G28   29.47S WCI  15
$$

IAZ001>003-012>014-020>022-031-032-NEZ013-014-SDZ071-240500-
NORTHWEST IOWA

CITY           SKY/WX    TMP DP  RH WIND       PRES   REMARKS
CHEROKEE       CLOUDY    32  25  76 NW15G29   29.49F WCI  22
DENISON        CLOUDY    36  27  69 NW16G25   29.48S
ESTHERVILLE    CLOUDY    32  26  78 NW23G29   29.43F WCI  19
LE MARS        CLOUDY    30  21  69 NW22G35   29.54F WCI  17
ORANGE CITY    CLOUDY    30  25  80 NW24G31   29.51F WCI  16
SHELDON        CLOUDY    30  25  80 NW17G33   29.48F WCI  18
SIOUX CITY     CLOUDY    33  22  63 NW29G37   29.54F WCI  19
SPENCER        CLOUDY    32  24  72 NW21G30   29.46F WCI  20
STORM LAKE     CLOUDY    32  27  80 NW28G36   29.46S WCI  18
$$

ABBREVIATIONS USED IN REMARKS
   TC - TEMPERATURE IN CELSIUS
  WCI - WIND CHILL INDEX
   HX - HEAT INDEX
  VSB - VISIBILITY




USA.gov is the U.S. government's official web portal to all federal, state and local government web resources and services.